DW0529 Weather Reports


Display with metric or nautical units.
time (UTC)temp
F
wind
direction
speed
MPH
gust
MPH
rain 1hr
in
rain 24hr
in
rain mn
in
humidity
%
barometer
mb
20260905010113 74 175 1.0 5.0 0.00 0.00 0.00 58 968.4
20260905005116 75 141 1.0 5.0 0.00 0.00 0.00 53 968.3
20260905004104 75 208 1.0 8.0 0.00 0.00 0.00 49 968.3
20260905003030 76 222 1.0 8.0 0.00 0.00 0.00 46 968.3
20260905000859 76 220 1.0 6.0 0.00 0.00 0.00 46 968.2
20260904235859 77 185 1.0 6.0 0.00 0.00 0.00 48 968.1
20260904234843 77 232 1.0 8.0 0.00 0.00 0.00 45 968.1
20260904232650 77 236 1.0 8.0 0.00 0.00 0.00 45 968.3
20260904231640 77 230 1.0 8.0 0.00 0.00 0.00 48 968.1
20260904230638 77 198 2.0 7.0 0.00 0.00 0.00 50 968.3
20260904225639 77 234 2.0 7.0 0.00 0.00 0.00 50 968.4
20260904223548 77 205 2.0 8.0 0.00 0.00 0.00 52 968.4
20260904222546 77 215 2.0 9.0 0.00 0.00 0.00 53 968.5
20260904221554 77 239 2.0 9.0 0.00 0.00 0.00 49 968.4
20260904215458 77 267 1.0 7.0 0.00 0.00 0.00 54 968.5
20260904214505 77 242 2.0 7.0 0.00 0.00 0.00 54 968.7
20260904213517 77 252 2.0 8.0 0.00 0.00 0.00 56 968.7
20260904212542 77 225 2.0 10.0 0.00 0.00 0.00 55 968.6
20260904211523 77 215 2.0 10.0 0.00 0.00 0.00 54 968.8
20260904210531 77 249 2.0 8.0 0.00 0.00 0.00 53 968.7
20260904205544 78 232 1.0 8.0 0.00 0.00 0.00 52 968.6
20260904204540 78 205 2.0 8.0 0.00 0.00 0.00 52 968.6
20260904203602 79 187 2.0 6.0 0.00 0.00 0.00 49 968.5
20260904202547 78 175 2.0 6.0 0.00 0.00 0.00 49 968.6
20260904201554 77 202 1.0 6.0 0.00 0.00 0.00 52 968.6
20260904195429 77 82 1.0 6.0 0.00 0.00 0.00 51 968.8
20260904194427 78 178 1.0 6.0 0.00 0.00 0.00 48 968.8
20260904193444 78 184 0.0 6.0 0.00 0.00 0.00 49 968.9
20260904192448 77 204 1.0 4.0 0.00 0.00 0.00 51 969.0
20260904191425 76 225 1.0 4.0 0.00 0.00 0.00 54 969.2
20260904190407 75 225 1.0 4.0 0.00 0.00 0.00 57 969.4
20260904185420 74 227 1.0 6.0 0.00 0.00 0.00 58 969.4
20260904184409 74 236 1.0 6.0 0.00 0.00 0.00 59 969.6
20260904183401 73 223 0.0 6.0 0.00 0.00 0.00 61 969.6
20260904182338 73 227 1.0 6.0 0.00 0.00 0.00 62 969.6
20260904181350 73 251 1.0 5.0 0.00 0.00 0.00 60 969.7
20260904180330 73 205 1.0 5.0 0.00 0.00 0.00 62 969.7
20260904174128 71 194 1.0 5.0 0.00 0.00 0.00 65 969.8
20260904173056 70 171 1.0 5.0 0.00 0.00 0.00 66 969.7
20260904172035 70 229 1.0 5.0 0.00 0.00 0.00 65 969.6
20260904171004 71 224 0.0 5.0 0.00 0.00 0.00 63 969.6
20260904170004 71 180 0.0 4.0 0.00 0.00 0.00 63 969.5
20260904164934 70 221 0.0 1.0 0.00 0.00 0.00 66 969.3
20260904162828 68 221 0.0 3.0 0.00 0.00 0.00 72 969.2
20260904161822 67 218 0.0 0.0 0.00 0.00 0.00 78 969.3
20260904160822 66 218 0.0 1.0 0.00 0.00 0.00 80 969.1
20260904155825 65 218 0.0 3.0 0.00 0.00 0.00 80 969.1
20260904154754 64 200 0.0 3.0 0.00 0.00 0.00 87 969.1
20260904153817 63 200 0.0 0.0 0.00 0.00 0.00 91 969.1
20260904152748 62 200 0.0 0.0 0.00 0.00 0.00 95 969.1
20260904151737 62 200 0.0 0.0 0.00 0.00 0.00 95 969.0
20260904150743 62 200 0.0 0.0 0.00 0.00 0.00 96 969.0
20260904145746 61 200 0.0 0.0 0.00 0.00 0.00 96 968.9
20260904144733 61 200 0.0 0.0 0.00 0.00 0.00 97 968.7
20260904143739 61 200 0.0 0.0 0.00 0.00 0.00 96 968.7
20260904142738 60 200 0.0 0.0 0.00 0.00 0.00 96 968.5
20260904141708 60 200 0.0 0.0 0.00 0.00 0.00 96 968.4
20260904140705 60 200 0.0 0.0 0.00 0.00 0.00 96 968.3
20260904135654 60 200 0.0 0.0 0.00 0.00 0.00 96 968.1
20260904134705 60 200 0.0 0.0 0.00 0.00 0.00 96 968.0
20260904133718 60 200 0.0 0.0 0.00 0.00 0.00 96 968.0
20260904132723 60 200 0.0 0.0 0.00 0.00 0.00 96 968.0
20260904131728 60 200 0.0 0.0 0.00 0.00 0.00 95 967.9
20260904130657 60 200 0.0 0.0 0.00 0.00 0.00 95 968.0
20260904125637 60 200 0.0 0.0 0.00 0.00 0.00 95 968.0
20260904124631 60 200 0.0 0.0 0.00 0.00 0.00 95 967.9
20260904123652 60 200 0.0 0.0 0.00 0.00 0.00 95 967.9
20260904122639 60 200 0.0 0.0 0.00 0.00 0.00 95 967.8
20260904121639 60 200 0.0 0.0 0.00 0.00 0.00 95 967.9
20260904120652 60 200 0.0 0.0 0.00 0.00 0.00 95 967.9
20260904115626 61 200 0.0 0.0 0.00 0.00 0.00 95 967.8
20260904113500 61 200 0.0 0.0 0.00 0.00 0.00 95 967.9
20260904112452 61 200 0.0 0.0 0.00 0.00 0.00 95 967.9
20260904111454 61 200 0.0 0.0 0.00 0.00 0.00 95 967.9
20260904110520 61 200 0.0 0.0 0.00 0.00 0.00 95 968.0
20260904105500 61 200 0.0 0.0 0.00 0.00 0.00 95 967.9
20260904102134 61 200 0.0 0.0 0.00 0.00 0.00 94 967.9
20260904101154 61 200 0.0 0.0 0.00 0.00 0.00 94 967.8
20260904100153 61 200 0.0 0.0 0.00 0.00 0.00 94 967.9
20260904094041 60 200 0.0 0.0 0.00 0.00 0.00 93 967.8
20260904093015 61 200 0.0 0.0 0.00 0.00 0.00 93 967.8
20260904092034 61 200 0.0 0.0 0.00 0.00 0.00 92 967.8
20260904091032 61 200 0.0 0.0 0.00 0.00 0.00 92 967.8
20260904084849 61 200 0.0 0.0 0.00 0.00 0.00 92 968.0
20260904083850 61 200 0.0 0.0 0.00 0.00 0.00 92 968.0
20260904082900 60 200 0.0 0.0 0.00 0.00 0.00 92 968.0
20260904081909 61 200 0.0 0.0 0.00 0.00 0.00 92 968.1
20260904080913 61 200 0.0 0.0 0.00 0.00 0.00 92 968.2
20260904075858 61 200 0.0 0.0 0.00 0.00 0.00 91 968.2
20260904073710 61 200 0.0 0.0 0.00 0.00 0.00 90 968.3
20260904071511 62 200 0.0 0.0 0.00 0.00 0.00 90 968.2
20260904070502 62 200 0.0 0.0 0.00 0.00 0.00 89 968.1
20260904065516 62 200 0.0 0.0 0.00 0.00 0.00 89 968.0
20260904064458 62 200 0.0 0.0 0.00 0.00 0.00 88 968.1
20260904062329 63 200 0.0 0.0 0.00 0.00 0.00 87 968.0
20260904060128 62 200 0.0 0.0 0.00 0.00 0.00 83 967.8
20260904055123 62 200 0.0 0.0 0.00 0.00 0.00 80 967.8
20260904053012 62 200 0.0 0.0 0.00 0.00 0.00 74 968.0
20260904052006 63 200 0.0 0.0 0.00 0.00 0.00 79 967.9
20260904051002 64 200 0.0 0.0 0.00 0.00 0.00 83 968.0
20260904050023 63 200 0.0 0.0 0.00 0.00 0.00 80 968.1
20260904043847 62 200 0.0 0.0 0.00 0.00 0.00 79 967.9
20260904042859 62 200 0.0 0.0 0.00 0.00 0.00 80 967.8
20260904041900 62 200 0.0 0.0 0.00 0.00 0.00 82 967.8
20260904040906 62 200 0.0 0.0 0.00 0.00 0.00 84 967.7
20260904035900 63 200 0.0 0.0 0.00 0.00 0.00 85 967.7
20260904033731 63 200 0.0 0.0 0.00 0.00 0.00 87 967.6
20260904032710 63 200 0.0 0.0 0.00 0.00 0.00 85 967.4
20260904031734 64 200 0.0 0.0 0.00 0.00 0.00 85 967.4
20260904030720 64 200 0.0 0.0 0.00 0.00 0.00 84 967.4
20260904025719 64 200 0.0 0.0 0.00 0.00 0.00 83 967.4
20260904024702 65 200 0.0 0.0 0.00 0.00 0.00 82 967.3
20260904023630 65 200 0.0 0.0 0.00 0.00 0.00 81 967.3
20260904022642 66 200 0.0 0.0 0.00 0.00 0.00 80 967.2
20260904021616 66 200 0.0 0.0 0.00 0.00 0.00 79 967.2
20260904020628 67 198 0.0 5.0 0.00 0.00 0.00 79 967.2
20260904015653 68 210 0.0 3.0 0.00 0.00 0.00 76 967.3
20260904014658 69 211 0.0 2.0 0.00 0.00 0.00 73 967.3
20260904013639 69 192 0.0 3.0 0.00 0.00 0.00 71 967.3
20260904012652 70 204 0.0 3.0 0.00 0.00 0.00 69 967.3
20260904011659 71 204 0.0 4.0 0.00 0.00 0.00 68 967.3
20260904010704 71 172 0.0 4.0 0.00 0.00 0.00 67 967.4